Volver al catálogo

CZ-6A DEB

ActivoPO
NORAD 60874·DEBRIS·🇨🇳 China

Lanzado Aug 6, 2024 desde Taiyuan Satellite Launch Center

Loading…

Próximos Pases (próximas 24 horas)

TLE

ActualizadoSource: Space-Track

Época: Sep 14, 2026, 10:30 UTC

1 60874U 24140KD  26257.43750489  .00000895  00000-0  20158-3 0  9999
2 60874  88.8778 248.5589 0099353 326.1061  33.3822 14.52545282110317

Sigue CZ-6A DEB en tiempo real con AllMySat

Download on the App Store